TimeEDT,TemperatureF,Dew PointF,Humidity,Sea Level PressureIn,VisibilityMPH,Wind Direction,Wind SpeedMPH,Gust SpeedMPH,PrecipitationIn,Events,Conditions,WindDirDegrees,DateUTC
12:15 AM,16.5,12.0,82,29.88,10.0,WSW,9.2,-,N/A,,Overcast,250,2013-03-21 04:15:00
12:34 AM,16.7,12.2,82,29.87,10.0,WSW,9.2,-,N/A,,Overcast,250,2013-03-21 04:34:00
12:55 AM,16.9,12.4,82,29.87,10.0,WSW,9.2,-,N/A,,Overcast,250,2013-03-21 04:55:00
1:15 AM,17.4,12.9,83,29.86,10.0,WSW,10.4,-,N/A,,Overcast,250,2013-03-21 05:15:00
1:34 AM,17.4,12.9,83,29.86,10.0,West,9.2,-,N/A,,Overcast,270,2013-03-21 05:34:00
2:15 AM,18.0,13.6,83,29.85,5.0,WSW,8.1,-,N/A,Snow,Light Snow,250,2013-03-21 06:15:00
2:34 AM,18.1,14.0,84,29.85,7.0,WSW,10.4,-,N/A,,Overcast,250,2013-03-21 06:34:00
2:55 AM,18.5,14.5,85,29.84,10.0,West,8.1,-,N/A,,Overcast,260,2013-03-21 06:55:00
3:15 AM,18.3,14.0,83,29.83,10.0,West,8.1,-,N/A,,Mostly Cloudy,260,2013-03-21 07:15:00
3:34 AM,18.3,14.0,83,29.83,10.0,West,6.9,-,N/A,,Overcast,260,2013-03-21 07:34:00
3:55 AM,18.5,14.0,83,29.83,10.0,West,9.2,-,N/A,,Overcast,260,2013-03-21 07:55:00
4:15 AM,18.5,14.4,84,29.82,10.0,West,9.2,-,N/A,,Overcast,260,2013-03-21 08:15:00
4:34 AM,18.5,14.4,84,29.81,10.0,West,10.4,-,N/A,,Mostly Cloudy,260,2013-03-21 08:34:00
4:55 AM,18.5,14.7,85,29.81,10.0,West,9.2,-,N/A,,Clear,270,2013-03-21 08:55:00
5:15 AM,19.2,14.9,83,29.81,10.0,West,8.1,-,N/A,,Scattered Clouds,280,2013-03-21 09:15:00
5:34 AM,19.9,15.6,83,29.81,10.0,West,9.2,-,N/A,Snow,Light Snow,280,2013-03-21 09:34:00
5:55 AM,21.0,16.3,82,29.81,10.0,West,10.4,-,N/A,,Overcast,280,2013-03-21 09:55:00
6:14 AM,22.1,17.4,82,29.81,10.0,West,10.4,16.1,N/A,,Overcast,280,2013-03-21 10:14:00
6:35 AM,22.6,17.6,81,29.82,10.0,West,10.4,-,N/A,,Overcast,280,2013-03-21 10:35:00
6:55 AM,22.8,18.0,82,29.82,10.0,West,10.4,-,N/A,,Overcast,280,2013-03-21 10:55:00
7:14 AM,23.0,18.3,82,29.82,10.0,West,12.7,-,N/A,,Overcast,280,2013-03-21 11:14:00
7:35 AM,23.4,18.7,82,29.82,10.0,West,8.1,-,N/A,,Overcast,280,2013-03-21 11:35:00
7:55 AM,24.3,19.4,82,29.82,10.0,West,9.2,-,N/A,,Overcast,260,2013-03-21 11:55:00
8:14 AM,24.1,19.4,82,29.83,10.0,West,8.1,-,N/A,,Overcast,270,2013-03-21 12:14:00
8:55 AM,24.6,19.9,82,29.83,10.0,West,8.1,-,N/A,,Overcast,270,2013-03-21 12:55:00
9:14 AM,24.8,20.1,82,29.83,10.0,West,5.8,-,N/A,,Overcast,270,2013-03-21 13:14:00
9:35 AM,25.7,20.3,80,29.83,10.0,West,5.8,-,N/A,,Overcast,270,2013-03-21 13:35:00
9:55 AM,26.6,21.0,79,29.84,10.0,WNW,6.9,-,N/A,,Overcast,290,2013-03-21 13:55:00
10:14 AM,27.5,21.2,77,29.84,10.0,WNW,8.1,-,N/A,,Overcast,290,2013-03-21 14:14:00
10:35 AM,28.2,21.6,76,29.84,10.0,WNW,9.2,-,N/A,,Overcast,290,2013-03-21 14:35:00
10:55 AM,28.6,21.7,76,29.84,10.0,WNW,5.8,-,N/A,,Overcast,300,2013-03-21 14:55:00
11:14 AM,29.3,21.6,73,29.85,10.0,WNW,6.9,-,N/A,,Overcast,290,2013-03-21 15:14:00
11:35 AM,29.3,21.7,73,29.84,10.0,West,8.1,-,N/A,,Overcast,280,2013-03-21 15:35:00
11:55 AM,29.3,21.6,73,29.84,10.0,West,9.2,-,N/A,Snow,Light Snow,280,2013-03-21 15:55:00
12:14 PM,29.3,21.7,73,29.85,10.0,West,10.4,-,N/A,,Overcast,280,2013-03-21 16:14:00
12:35 PM,29.3,21.7,73,29.85,10.0,West,8.1,-,N/A,,Overcast,280,2013-03-21 16:35:00
12:54 PM,29.7,21.0,70,29.85,10.0,NW,8.1,17.3,N/A,,Overcast,320,2013-03-21 16:54:00
1:15 PM,30.6,20.3,66,29.85,10.0,NW,11.5,17.3,N/A,,Overcast,310,2013-03-21 17:15:00
1:35 PM,31.1,19.0,61,29.85,10.0,WNW,8.1,-,N/A,,Overcast,300,2013-03-21 17:35:00
1:54 PM,31.3,18.7,60,29.85,10.0,WNW,12.7,18.4,N/A,,Overcast,290,2013-03-21 17:54:00
2:15 PM,31.5,18.5,59,29.85,10.0,WNW,10.4,-,N/A,,Overcast,290,2013-03-21 18:15:00
2:35 PM,31.5,19.4,61,29.84,10.0,WNW,10.4,-,N/A,,Overcast,300,2013-03-21 18:35:00
2:54 PM,31.1,19.6,62,29.85,10.0,West,10.4,19.6,N/A,,Overcast,280,2013-03-21 18:54:00
3:15 PM,31.6,20.1,62,29.84,10.0,WNW,8.1,-,N/A,,Overcast,290,2013-03-21 19:15:00
3:35 PM,31.6,20.3,63,29.85,10.0,WNW,11.5,-,N/A,,Overcast,290,2013-03-21 19:35:00
3:54 PM,31.1,20.3,64,29.85,10.0,WNW,9.2,17.3,N/A,,Overcast,290,2013-03-21 19:54:00
4:15 PM,31.1,19.6,62,29.85,10.0,WNW,11.5,19.6,N/A,,Overcast,290,2013-03-21 20:15:00
4:35 PM,30.9,20.1,64,29.86,10.0,WNW,12.7,17.3,N/A,,Overcast,300,2013-03-21 20:35:00
4:54 PM,30.6,19.2,63,29.86,10.0,WNW,15.0,20.7,N/A,,Overcast,290,2013-03-21 20:54:00
5:15 PM,30.2,19.4,64,29.87,10.0,WNW,9.2,19.6,N/A,Snow,Light Snow,290,2013-03-21 21:15:00
5:35 PM,30.2,19.2,64,29.87,10.0,WNW,11.5,17.3,N/A,,Overcast,290,2013-03-21 21:35:00
5:54 PM,29.8,19.4,65,29.87,10.0,West,11.5,18.4,N/A,,Overcast,280,2013-03-21 21:54:00
6:15 PM,30.2,18.7,62,29.87,10.0,West,12.7,17.3,N/A,,Overcast,280,2013-03-21 22:15:00
6:35 PM,30.2,18.3,61,29.87,10.0,WNW,13.8,19.6,N/A,,Overcast,300,2013-03-21 22:35:00
6:54 PM,29.8,17.6,60,29.87,10.0,WNW,6.9,16.1,N/A,,Overcast,290,2013-03-21 22:54:00
7:15 PM,29.5,17.4,61,29.88,10.0,WNW,9.2,17.3,N/A,,Overcast,300,2013-03-21 23:15:00
7:34 PM,29.3,17.4,61,29.88,10.0,WNW,8.1,16.1,N/A,,Overcast,300,2013-03-21 23:34:00
7:55 PM,29.1,17.6,62,29.89,10.0,West,11.5,-,N/A,,Overcast,280,2013-03-21 23:55:00
8:15 PM,28.9,17.2,62,29.89,10.0,WNW,6.9,-,N/A,,Overcast,290,2013-03-22 00:15:00
8:35 PM,28.4,18.1,65,29.89,10.0,WNW,10.4,16.1,N/A,,Overcast,290,2013-03-22 00:35:00
8:55 PM,28.4,16.7,62,29.90,10.0,NW,8.1,-,N/A,,Overcast,310,2013-03-22 00:55:00
9:15 PM,28.0,16.5,62,29.90,10.0,WNW,8.1,-,N/A,,Overcast,300,2013-03-22 01:15:00
9:34 PM,27.9,17.2,64,29.91,10.0,WNW,8.1,-,N/A,,Overcast,300,2013-03-22 01:34:00
9:55 PM,27.5,16.7,64,29.92,10.0,WNW,10.4,-,N/A,,Overcast,290,2013-03-22 01:55:00
10:15 PM,27.5,16.7,64,29.92,10.0,WNW,8.1,16.1,N/A,,Overcast,300,2013-03-22 02:15:00
10:34 PM,27.3,16.2,63,29.92,10.0,WNW,11.5,17.3,N/A,,Overcast,300,2013-03-22 02:34:00
10:55 PM,27.1,16.5,64,29.92,10.0,NW,8.1,16.1,N/A,,Overcast,310,2013-03-22 02:55:00
11:15 PM,27.0,16.7,65,29.92,10.0,NW,8.1,-,N/A,,Overcast,320,2013-03-22 03:15:00
11:34 PM,26.6,16.9,67,29.92,10.0,NW,9.2,16.1,N/A,,Overcast,310,2013-03-22 03:34:00
11:55 PM,26.6,16.9,67,29.92,10.0,NW,6.9,16.1,N/A,,Overcast,310,2013-03-22 03:55:00